DW0269 Weather Reports


Display with metric or nautical units.
time (UTC)temp
F
wind
direction
speed
MPH
gust
MPH
rain 1hr
in
rain 24hr
in
rain mn
in
humidity
%
barometer
mb
20260507103650 65 10 2.0 11.0 0.00 0.00 0.00 81 950.5
20260507103149 65 21 2.0 11.0 0.00 0.00 0.00 81 950.9
20260507102648 65 114 1.0 11.0 0.00 0.00 0.00 82 950.8
20260507102146 65 0 3.0 11.0 0.00 0.00 0.00 82 950.8
20260507101645 65 6 3.0 11.0 0.00 0.00 0.00 82 950.6
20260507101144 65 359 2.0 11.0 0.00 0.00 0.00 83 951.1
20260507100127 65 324 2.0 11.0 0.00 0.00 0.00 81 951.1
20260507095626 65 340 2.0 11.0 0.00 0.00 0.00 82 950.8
20260507095125 65 3 2.0 11.0 0.00 0.00 0.00 82 950.7
20260507094624 65 12 3.0 11.0 0.00 0.00 0.00 82 951.0
20260507094122 65 28 3.0 11.0 0.00 0.00 0.00 81 950.7
20260507093621 65 23 5.0 14.0 0.00 0.00 0.00 81 950.7
20260507092048 66 17 4.0 14.0 0.00 0.00 0.00 74 950.9
20260507091547 66 24 5.0 14.0 0.00 0.00 0.00 73 950.7
20260507091046 66 20 5.0 14.0 0.00 0.00 0.00 72 950.8
20260507090029 66 17 4.0 12.0 0.00 0.00 0.00 73 951.0
20260507085528 66 25 5.0 12.0 0.00 0.00 0.00 74 950.6
20260507085027 66 24 5.0 12.0 0.00 0.00 0.00 72 950.8
20260507084526 66 15 5.0 12.0 0.00 0.00 0.00 72 951.2
20260507084025 66 14 4.0 12.0 0.00 0.00 0.00 72 951.3
20260507082452 65 28 5.0 12.0 0.00 0.00 0.00 71 950.8
20260507081435 65 20 3.0 12.0 0.00 0.00 0.00 69 951.0
20260507080935 66 28 2.0 12.0 0.00 0.00 0.00 68 951.2
20260507080433 66 40 3.0 12.0 0.00 0.00 0.00 68 951.0
20260507075417 67 26 2.0 12.0 0.00 0.00 0.00 66 951.0
20260507074915 67 30 3.0 12.0 0.00 0.00 0.00 66 951.2
20260507074414 67 16 2.0 12.0 0.00 0.00 0.00 67 951.0
20260507073913 67 9 2.0 12.0 0.00 0.00 0.00 67 950.9
20260507073412 67 15 3.0 12.0 0.00 0.00 0.00 67 951.1
20260507072911 67 14 2.0 12.0 0.00 0.00 0.00 68 950.7
20260507072410 67 19 4.0 12.0 0.00 0.00 0.00 67 950.9
20260507071909 67 14 3.0 12.0 0.00 0.00 0.00 67 951.1
20260507070852 66 19 4.0 12.0 0.00 0.00 0.00 69 950.5
20260507070352 66 18 4.0 12.0 0.00 0.00 0.00 70 950.4
20260507065334 65 28 3.0 12.0 0.00 0.00 0.00 73 950.3
20260507064833 65 29 3.0 12.0 0.00 0.00 0.00 74 950.3
20260507064331 65 32 4.0 12.0 0.00 0.00 0.00 75 950.1
20260507063315 65 39 3.0 12.0 0.00 0.00 0.00 74 950.2
20260507062813 65 32 3.0 12.0 0.00 0.00 0.00 74 950.0
20260507061757 66 38 3.0 12.0 0.00 0.00 0.00 72 950.3
20260507061256 66 29 4.0 12.0 0.00 0.00 0.00 73 949.9
20260507060754 67 41 2.0 12.0 0.00 0.00 0.00 72 949.9
20260507060253 68 31 4.0 12.0 0.00 0.00 0.00 71 950.3
20260507055753 68 22 2.0 12.0 0.00 0.00 0.00 69 950.0
20260507054735 68 40 3.0 12.0 0.00 0.00 0.00 69 950.2
20260507054235 68 27 3.0 12.0 0.00 0.00 0.00 69 950.2
20260507053733 68 18 2.0 12.0 0.00 0.00 0.00 70 949.9
20260507053233 68 38 2.0 12.0 0.00 0.00 0.00 72 949.9
20260507052731 68 44 3.0 12.0 0.00 0.00 0.00 72 949.8
20260507052230 68 64 2.0 12.0 0.00 0.00 0.00 73 949.9
20260507051729 68 59 2.0 12.0 0.00 0.00 0.00 73 949.7
20260507050711 67 60 2.0 12.0 0.00 0.00 0.00 73 949.4
20260507050210 67 62 2.0 12.0 0.00 0.00 0.00 74 949.1
20260507045709 68 67 1.0 12.0 0.00 0.00 0.00 74 949.3
20260507045207 68 36 2.0 12.0 0.00 0.00 0.00 72 949.1
20260507044707 68 49 2.0 12.0 0.00 0.00 0.00 72 949.1
20260507044206 69 37 3.0 12.0 0.00 0.00 0.00 71 949.1
20260507041601 70 37 3.0 12.0 0.00 0.00 0.00 70 949.1
20260507041059 71 39 2.0 12.0 0.00 0.00 0.00 70 949.1
20260507040558 71 34 2.0 12.0 0.00 0.00 0.00 70 949.0
20260507040057 71 37 3.0 12.0 0.00 0.00 0.00 69 948.9
20260507035556 71 39 4.0 12.0 0.00 0.00 0.00 69 949.0
20260507035055 71 28 2.0 12.0 0.00 0.00 0.00 70 949.0
20260507034554 72 43 3.0 12.0 0.00 0.00 0.00 70 948.9
20260507034052 72 36 3.0 12.0 0.00 0.00 0.00 71 948.8
20260507033552 72 41 3.0 12.0 0.00 0.00 0.00 70 948.7
20260507033051 72 42 3.0 12.0 0.00 0.00 0.00 71 948.9
20260507032550 73 44 3.0 12.0 0.00 0.00 0.00 70 948.7
20260507032049 73 44 3.0 12.0 0.00 0.00 0.00 69 948.7
20260507031547 74 54 3.0 12.0 0.00 0.00 0.00 69 948.6
20260507031046 74 51 3.0 12.0 0.00 0.00 0.00 69 948.6
20260507030545 75 60 3.0 12.0 0.00 0.00 0.00 68 948.8
20260507025528 76 51 2.0 12.0 0.00 0.00 0.00 69 948.8
20260507025027 75 52 3.0 12.0 0.00 0.00 0.00 67 948.7
20260507024010 75 45 3.0 12.0 0.00 0.00 0.00 67 948.5
20260507022953 75 64 2.0 12.0 0.00 0.00 0.00 63 948.8
20260507022451 75 45 2.0 12.0 0.00 0.00 0.00 65 948.2
20260507021950 76 55 4.0 12.0 0.00 0.00 0.00 65 948.6
20260507020933 76 41 3.0 12.0 0.00 0.00 0.00 67 948.6
20260507020432 76 46 3.0 12.0 0.00 0.00 0.00 67 948.4
20260507015931 75 41 3.0 12.0 0.00 0.00 0.00 69 948.4
20260507015430 75 39 3.0 12.0 0.00 0.00 0.00 67 948.7
20260507014929 76 21 2.0 12.0 0.00 0.00 0.00 64 948.7
20260507014428 77 32 2.0 12.0 0.00 0.00 0.00 63 948.7
20260507013927 77 52 3.0 12.0 0.00 0.00 0.00 64 949.0
20260507013426 77 43 2.0 12.0 0.00 0.00 0.00 68 948.5
20260507012925 77 41 3.0 12.0 0.00 0.00 0.00 67 948.6
20260507012423 76 62 1.0 12.0 0.00 0.00 0.00 68 948.8
20260507011922 76 96 1.0 12.0 0.00 0.00 0.00 64 948.7
20260507011421 77 13 1.0 12.0 0.00 0.00 0.00 64 948.8
20260507010920 77 143 0.0 12.0 0.00 0.00 0.00 67 949.1
20260507005903 77 53 1.0 12.0 0.00 0.00 0.00 64 949.0
20260507005402 78 81 3.0 12.0 0.00 0.00 0.00 62 949.1
20260507004901 78 87 1.0 12.0 0.00 0.00 0.00 63 948.9
20260507004400 78 90 3.0 12.0 0.00 0.00 0.00 63 949.0
20260507003859 78 76 0.0 12.0 0.00 0.00 0.00 66 949.0
20260507003358 78 60 1.0 12.0 0.00 0.00 0.00 63 949.3
20260507002857 78 83 3.0 12.0 0.00 0.00 0.00 64 949.2
20260507002356 77 110 3.0 11.0 0.00 0.00 0.00 67 949.0
20260507001855 77 96 3.0 11.0 0.00 0.00 0.00 64 949.0
20260507000838 77 105 3.0 11.0 0.00 0.00 0.00 64 949.4
20260507000337 78 107 4.0 11.0 0.00 0.00 0.00 64 949.4
20260506235836 78 127 4.0 11.0 0.00 0.00 0.00 63 949.4
20260506235335 77 129 6.0 12.0 0.00 0.00 0.00 66 949.4
20260506234834 75 142 2.0 12.0 0.00 0.00 0.00 70 949.5
20260506234333 75 161 2.0 12.0 0.00 0.00 0.00 76 949.8
20260506233832 75 298 0.0 12.0 0.00 0.00 0.00 82 949.5
20260506232814 75 203 1.0 12.0 0.00 0.00 0.00 82 949.8
20260506232313 75 233 2.0 12.0 0.00 0.00 0.00 82 949.8
20260506231812 75 271 2.0 12.0 0.00 0.00 0.00 83 950.0
20260506231311 74 238 3.0 12.0 0.00 0.00 0.00 87 949.9
20260506230810 73 259 3.0 12.0 0.00 0.00 0.00 87 950.1
20260506230309 73 277 3.0 12.0 0.00 0.00 0.00 87 950.2
20260506225808 73 262 3.0 12.0 0.00 0.00 0.00 87 950.2
20260506225307 73 271 3.0 12.0 0.00 0.00 0.00 87 949.9
20260506224250 73 249 4.0 12.0 0.00 0.00 0.00 86 950.2
20260506223749 73 261 6.0 12.0 0.00 0.00 0.00 86 950.1
20260506223248 73 261 3.0 12.0 0.00 0.00 0.00 85 949.9
20260506222747 73 255 2.0 12.0 0.00 0.00 0.00 86 950.1
20260506222246 73 241 3.0 12.0 0.00 0.00 0.00 85 950.1
20260506221745 73 218 2.0 12.0 0.00 0.00 0.00 86 950.1
20260506221244 73 272 3.0 12.0 0.00 0.00 0.00 87 950.1
20260506220742 72 262 5.0 12.0 0.00 0.00 0.00 87 949.9
20260506214653 73 235 5.0 12.0 0.00 0.00 0.00 86 950.6
20260506214152 73 265 8.0 12.0 0.00 0.00 0.00 84 950.8
20260506213135 74 290 3.0 12.0 0.00 0.00 0.00 82 950.7
20260506212634 75 258 5.0 12.0 0.00 0.00 0.00 81 950.6
20260506212133 76 237 4.0 11.0 0.00 0.00 0.00 80 951.0
20260506211632 76 211 2.0 11.0 0.00 0.00 0.00 79 950.6
20260506205543 77 67 2.0 11.0 0.00 0.00 0.00 69 950.5
20260506205042 76 110 6.0 11.0 0.00 0.00 0.00 69 950.5
20260506204541 77 106 4.0 11.0 0.00 0.00 0.00 70 950.8
20260506203524 76 104 4.0 11.0 0.00 0.00 0.00 67 950.7
20260506203023 76 99 3.0 11.0 0.00 0.00 0.00 69 950.6
20260506202523 76 111 5.0 11.0 0.00 0.00 0.00 68 950.8
20260506202021 76 99 4.0 11.0 0.00 0.00 0.00 72 950.6
20260506201519 76 44 1.0 11.0 0.00 0.00 0.00 72 950.6
20260506201018 75 61 3.0 11.0 0.00 0.00 0.00 70 950.7
20260506200517 75 101 6.0 11.0 0.00 0.00 0.00 69 950.6
20260506200016 75 98 6.0 11.0 0.00 0.00 0.00 70 950.4
20260506195515 75 98 5.0 11.0 0.00 0.00 0.00 70 950.4
20260506195014 75 94 4.0 11.0 0.00 0.00 0.00 74 950.9
20260506194513 73 159 1.0 11.0 0.00 0.00 0.00 76 950.7
20260506194012 73 298 0.0 11.0 0.00 0.00 0.00 76 950.9
20260506193511 73 298 0.0 11.0 0.00 0.00 0.00 78 950.8
20260506193010 73 298 0.0 11.0 0.00 0.00 0.00 76 951.1
20260506192509 73 298 0.0 11.0 0.00 0.00 0.00 77 951.0
20260506192008 72 298 0.0 11.0 0.00 0.00 0.00 77 951.1
20260506191507 72 298 0.0 11.0 0.00 0.00 0.00 76 951.0
20260506191006 73 298 0.0 11.0 0.00 0.00 0.00 77 950.8
20260506190505 73 298 0.0 11.0 0.00 0.00 0.00 77 950.9
20260506190005 73 285 0.0 11.0 0.00 0.00 0.00 76 950.7
20260506185504 73 321 1.0 11.0 0.00 0.00 0.00 76 950.8
20260506185002 73 280 1.0 11.0 0.00 0.00 0.00 77 951.0
20260506184501 73 240 1.0 11.0 0.00 0.00 0.00 79 950.9
20260506184000 72 235 3.0 11.0 0.00 0.00 0.00 78 951.2
20260506182428 73 122 2.0 11.0 0.00 0.00 0.00 80 950.5
20260506181926 72 116 4.0 11.0 0.00 0.00 0.00 78 950.7
20260506180909 72 136 2.0 11.0 0.00 0.00 0.00 82 950.4
20260506180408 72 137 4.0 11.0 0.00 0.00 0.00 81 950.5
20260506175351 71 81 2.0 11.0 0.00 0.00 0.00 83 950.2
20260506174335 69 87 0.0 11.0 0.00 0.00 0.00 87 950.1
20260506173834 69 39 0.0 11.0 0.00 0.00 0.00 89 949.8
20260506173333 68 82 0.0 11.0 0.00 0.00 0.00 92 949.8
20260506172831 67 63 0.0 11.0 0.00 0.00 0.00 92 949.9
20260506172331 66 31 0.0 11.0 0.00 0.00 0.00 93 949.7
20260506171313 65 31 0.0 11.0 0.00 0.00 0.00 91 949.5
20260506170812 64 21 1.0 11.0 0.00 0.00 0.00 90 949.2
20260506165755 63 30 1.0 11.0 0.00 0.00 0.00 90 949.5
20260506165255 63 29 1.0 11.0 0.00 0.00 0.00 91 949.2
20260506164753 63 4 0.0 11.0 0.00 0.00 0.00 92 949.1
20260506164251 62 4 0.0 11.0 0.00 0.00 0.00 91 949.4
20260506163750 62 4 0.0 11.0 0.00 0.00 0.00 90 949.1
20260506163249 62 4 1.0 11.0 0.00 0.00 0.00 90 949.2
20260506162749 62 6 1.0 11.0 0.00 0.00 0.00 90 949.0
20260506162248 61 3 1.0 11.0 0.00 0.00 0.00 91 948.9
20260506161747 61 0 1.0 11.0 0.00 0.00 0.00 91 948.8
20260506160729 61 7 1.0 11.0 0.00 0.00 0.00 93 949.0
20260506155713 60 18 0.0 11.0 0.00 0.00 0.00 92 948.6
20260506155212 61 13 2.0 11.0 0.00 0.00 0.00 93 948.5
20260506154154 61 13 2.0 11.0 0.00 0.00 0.00 92 948.5
20260506153653 61 0 2.0 11.0 0.00 0.00 0.00 92 948.4
20260506153153 61 1 2.0 11.0 0.00 0.00 0.00 92 948.5
20260506152651 61 1 2.0 11.0 0.00 0.00 0.00 92 948.8
20260506152150 61 6 2.0 11.0 0.00 0.00 0.00 92 948.6
20260506151648 61 14 2.0 11.0 0.00 0.00 0.00 92 948.4
20260506151147 61 13 2.0 11.0 0.00 0.00 0.00 92 948.5
20260506150646 61 0 1.0 11.0 0.00 0.00 0.00 93 949.1
20260506150145 61 0 2.0 11.0 0.00 0.00 0.00 93 949.0
20260506144612 61 9 2.0 11.0 0.00 0.00 0.00 91 948.3
20260506144112 61 9 2.0 11.0 0.00 0.00 0.00 91 948.5
20260506143614 61 9 2.0 11.0 0.00 0.00 0.00 92 948.2
20260506143109 61 13 2.0 11.0 0.00 0.00 0.00 91 948.4
20260506142608 61 14 2.0 11.0 0.00 0.00 0.00 93 948.4
20260506142107 61 13 2.0 11.0 0.00 0.00 0.00 92 947.9
20260506141607 61 18 2.0 11.0 0.00 0.00 0.00 92 948.6
20260506141106 61 12 1.0 11.0 0.00 0.00 0.00 93 948.1
20260506140604 61 15 1.0 11.0 0.00 0.00 0.00 93 948.2
20260506135602 62 16 2.0 11.0 0.00 0.00 0.00 94 948.5
20260506135101 62 16 2.0 11.0 0.00 0.00 0.00 94 948.3
20260506134600 62 15 2.0 11.0 0.00 0.00 0.00 94 948.2
20260506134059 62 24 1.0 11.0 0.00 0.00 0.00 95 948.4
20260506133558 62 38 2.0 11.0 0.00 0.00 0.00 95 948.3
20260506133056 61 27 2.0 11.0 0.00 0.00 0.00 95 948.5
20260506132555 61 30 2.0 11.0 0.00 0.00 0.00 95 948.3
20260506131538 61 13 2.0 11.0 0.00 0.00 0.00 94 948.8
20260506130521 61 2 1.0 11.0 0.00 0.00 0.00 94 948.4
20260506130020 61 0 0.0 11.0 0.00 0.00 0.00 95 948.8
20260506125519 61 0 0.0 11.0 0.00 0.00 0.00 95 948.7
20260506125018 61 0 1.0 11.0 0.00 0.00 0.00 94 948.8
20260506124001 61 5 1.0 11.0 0.00 0.00 0.00 94 948.4
20260506123500 61 30 1.0 11.0 0.00 0.00 0.00 94 948.6
20260506122959 61 30 0.0 11.0 0.00 0.00 0.00 94 948.7
20260506122458 61 30 0.0 11.0 0.00 0.00 0.00 94 948.6
20260506121957 61 30 0.0 11.0 0.00 0.00 0.00 94 948.6
20260506121456 61 30 0.0 11.0 0.00 0.00 0.00 94 948.5
20260506120955 61 30 0.0 11.0 0.00 0.00 0.00 94 948.5
20260506120454 62 30 0.0 11.0 0.00 0.00 0.00 94 948.8
20260506115953 62 31 1.0 11.0 0.00 0.00 0.00 94 948.8
20260506114935 62 24 0.0 11.0 0.00 0.00 0.00 95 948.8
20260506114434 61 28 1.0 11.0 0.00 0.00 0.00 94 948.7
20260506113933 61 35 0.0 11.0 0.00 0.00 0.00 94 948.8
20260506113432 61 35 0.0 11.0 0.00 0.00 0.00 94 949.1
20260506112931 62 43 0.0 11.0 0.00 0.00 0.00 94 949.3
20260506112430 62 38 1.0 11.0 0.00 0.00 0.00 94 949.0
20260506111929 62 42 1.0 11.0 0.00 0.00 0.00 95 949.3
20260506111427 62 33 1.0 11.0 0.00 0.00 0.00 95 949.2
20260506110410 62 296 0.0 11.0 0.00 0.00 0.00 95 949.7
20260506105909 62 296 0.0 11.0 0.00 0.00 0.00 96 949.7
20260506105408 62 296 0.0 11.0 0.00 0.00 0.00 96 950.1
20260506104907 62 296 0.0 11.0 0.00 0.00 0.00 96 949.5
20260506104406 62 296 0.0 11.0 0.00 0.00 0.00 96 949.9